小惑星2008 QD4

2008 QD4

English version
Home page
Updated on September 3, 2011

---------------------------------------------------------------------

・ プロフィール

・ 軌道要素

The following orbital elements are taken from MPO192549

Epoch 2011 Aug. 27.0 TT = JDT 2455800.5                 MPC
M  14.68372              (2000.0)            P               Q
n   0.04023542     Peri.   69.01189     +0.52864953     -0.83022761
a   8.4345838      Node   344.68637     +0.27842437     +0.36633860
e   0.3549081      Incl.   42.01830     +0.80187876     +0.42014062
P  24.5            H   11.3           G   0.15           U   1
From 125 observations at 3 oppositions, 2008-2011, mean residual 0".36.

・ 光度変化

        H = 11.3  G = 0.15

---------------------------------------------------------------------

軌道要素はMPCのEphemerides and Orbital Elementsに掲載されたものです。
光度グラフはComet for Windowsで作成したものです。

---------------------------------------------------------------------

Copyright(C) Seiichi Yoshida (comet@aerith.net). All rights reserved.